User: anonymous   Login
Location: Unspecified
(0.0000°N, 0.0000°E)
Time: 05:27:13
(UTC+02:00)
Language:

Delta 168 - Orbit

View from above orbital plane
View from above orbital plane
View from above satellite
View from above satellite

Ground track
Ground track

The orbit data is extracted from the following two-line orbital elements,

1 14051U 83041B   16270.35069613  .00004177  00000-0  39318-3 0  9992
2 14051  25.3327 221.8998 1100856   0.0866 359.9707 13.07565284543862
Epoch (UTC): 26 September 2016 08:25:00
Eccentricity: 0.1100856
inclination: 25.3327°
perigee height: 395 km
apogee height: 2070 km
right ascension of ascending node: 221.8998°
argument of perigee: 0.0866°
revolutions per day: 13.07565284
mean anomaly at epoch: 359.9707°
orbit number at epoch: 54386

The dashed part of the orbit path shows where the satellite is in the earth's shadow,  

DLR